Weather in Bragin

Belarus     51°46′51″N   30°16′27″E
В апреле 2022 года жителям России запретили посещать сайт meteo.paraplan.net по решению Генеральной прокуратуры. Аудитория сайта уменьшилась в 10 раз. Владельцы сайта не видят смысла в поддержке погодного сервера в таких условиях. Сайт будет закрыт в октябре.
temp.,
°C
wind,
m/s
gust,
m/s
humid.,
%
clouds,
%
prec.,
mm/h
press.,
hPa
HPBL,
m
29 september, thu
thu2900:00+8sw37960 0.0 1004172
03:00+7sw37950 0.0 1006131
06:00+7ssw2291100 0.0 100722
09:00+10s3684100 0.0 1008178
12:00+14s587091 0.0 1008558
15:00+17sse69555 0.0 1008938
18:00+15sse51167100 0.0 1008345
21:00+13sse5127264 0.0 1008283
30 september, fri
fri3000:00+11sse41189100 0.6 1009229
03:00+12s3795100 1.4 1009194
06:00+12s249794 0.4 1010107
09:00+14wsw129250 0.4 1011165
12:00+16w228097 0.0 1013644
15:00+16wnw3380100 0.0 1014539
18:00+15nnw1182100 0.0 101532
21:00+13nnw0087100 0.0 101610
1 october, sat
sat100:00+13ese3488100 0.0 101663
03:00+13s3793100 0.3 1015204
06:00+12s410965 0.6 1014222
09:00+14sw41089100 0.6 1015363
12:00+15sw2790100 0.4 1014308
15:00+19wsw5877100 1.2 1013943
18:00+15sw51092100 2.3 1013483
21:00+14wsw369775 2.8 1013294
2 october, sun
sun200:00+13w129872 0.1 101259
03:00+12ne119376 0.1 101221
06:00+13ene2392100 0.0 101177
09:00+12ne3595100 1.0 1011207
12:00+11nne4697100 5.0 1010248
15:00+11n5997100 11.0 1009418
18:00+11n61195100 3.9 1009640
21:00+10nnw71294100 6.9 1009542
3 october, mon
mon300:00+10nw51292100 1.6 1008547
03:00+10nw61292100 1.8 1007539
06:00+9nw71393100 1.9 1003669
09:00+9nw81593100 3.1 1001776
12:00+10nw91590100 2.1 9991126
15:00+10wnw91688100 4.4 9991427
18:00+10wnw101687100 2.2 9981367
21:00+9w101690100 5.4 9981412